AO-07 1 07530U 74089B 16231.93146689 -.00000040 00000-0 26764-4 0 9996 2 07530 101.5808 201.1745 0011798 186.9953 180.6311 12.53622654910980 FO-29 1 24278U 96046B 16230.84175933 -.00000006 00000-0 28972-4 0 9999 2 24278 98.5833 147.9859 0351207 43.1126 319.6956 13.53069822987854 RS-22 1 27939U 03042A 16231.92647046 .00000127 00000-0 31266-4 0 9992 2 27939 97.8976 21.2129 0014420 104.7477 10.5139 14.66436824689013 AO-73 1 39444U 13066AE 16231.11225128 .00000457 00000-0 63773-4 0 9991 2 39444 97.6757 282.0017 0059013 177.0093 183.1485 14.81131905146747 EO-79 1 40025U 14033R 16231.72964349 .00000405 00000-0 50118-4 0 9997 2 40025 97.9226 137.1585 0011660 213.7433 146.3042 14.88080908117505 XW-2A 1 40903U 15049E 16231.88141525 .00002880 00000-0 82165-4 0 9996 2 40903 97.4440 247.8020 0013814 270.8486 89.1175 15.36822237 51186 XW-2C 1 40906U 15049H 16231.90579260 .00001110 00000-0 65019-4 0 9997 2 40906 97.4544 237.6403 0015691 174.5055 185.6351 15.13753902 50491 LILACSAT-2 1 40908U 15049K 16231.89545043 .00000694 00000-0 43249-4 0 9996 2 40908 97.4609 237.4801 0016666 169.2102 190.9490 15.12644276 50464 UO-11 1 14781U 84021B 16230.91574602 .00000163 00000-0 26530-4 0 9992 2 14781 097.7438 281.0116 0009978 110.0179 250.2110 14.82778117724406 LO-19 1 20442U 90005G 16231.07662768 .00000001 00000-0 16315-4 0 9992 2 20442 98.5449 165.1634 0011184 328.8658 31.1862 14.32825781388218 AO-27 1 22825U 93061C 16230.93998596 -.00000007 00000-0 14902-4 0 9996 2 22825 98.7648 187.5866 0009178 131.9213 228.2753 14.29964351194062 IO-26 1 22826U 93061D 16231.39013334 .00000010 00000-0 21350-4 0 9994 2 22826 98.7591 188.1567 0009846 122.7753 237.4379 14.30290003194293 GO-32 1 25397U 98043D 16231.76412622 -.00000013 00000-0 13160-4 0 9993 2 25397 98.5707 175.0947 0001975 124.6928 235.4437 14.23600149940765 NO-44 1 26931U 01043C 16231.91665782 -.00000006 00000-0 29464-4 0 9992 2 26931 67.0516 151.0710 0005803 261.7505 98.2938 14.30419640777119 SO-50 1 27607U 02058C 16231.12705678 .00000111 00000-0 36706-4 0 9995 2 27607 64.5566 331.5959 0061409 203.3152 156.5163 14.75193616734405 CO-55 1 27844U 03031E 16231.93711541 .00000066 00000-0 49516-4 0 9997 2 27844 98.6930 239.3236 0010517 136.3746 223.8265 14.21969368681365 CO-57 1 27848U 03031J 16231.57441092 .00000054 00000-0 44604-4 0 9992 2 27848 98.7026 239.0882 0010277 145.2876 214.8973 14.21593528681206 CO-65 1 32785U 08021C 16231.72429888 .00000361 00000-0 45319-4 0 9993 2 32785 97.5986 263.3256 0014834 90.4548 269.8369 14.87628930449927 PRISM 1 33493U 09002B 16231.85145712 .00001425 00000-0 13566-3 0 9995 2 33493 98.2095 94.8744 0015866 5.5802 354.5590 14.95069777410594 TISAT-1 1 36799U 10035E 16231.84786319 .00000696 00000-0 78334-4 0 9992 2 36799 98.0355 343.1135 0011417 236.2345 123.7785 14.89914355330755 ALMASAT-1 1 38078U 12006B 16230.95533072 .00034578 36820-5 45490-3 0 9997 2 38078 069.4445 219.2407 0372895 012.5193 348.4915 15.05994482238879 DUCHIFAT-1 1 40021U 14033M 16231.69725254 .00000688 00000-0 78341-4 0 9990 2 40021 97.9259 138.3576 0012216 212.1398 147.9076 14.89405098117563 NANOSATCBR1 1 40024U 14033Q 16231.70318904 .00000546 00000-0 64337-4 0 9998 2 40024 97.9231 137.6836 0011509 212.0012 148.0507 14.88801502117530 DTUSAT-2 1 40030U 14033W 16231.72648106 .00000415 00000-0 51602-4 0 9993 2 40030 97.9202 136.5539 0011227 206.9403 153.1231 14.87714226117475 ANTELSAT 1 40034U 14033AA 16231.84370562 .00000297 00000-0 52309-4 0 9991 2 40034 97.8957 118.4880 0058918 183.2539 176.8295 14.73440834116408 MET-2/21 1 22782U 93055A 16231.27498407 .00000033 00000-0 16383-4 0 9998 2 22782 82.5468 263.9604 0022083 197.2005 211.6392 13.83789834159806 NOAA-15 1 25338U 98030A 16231.68169483 .00000038 00000-0 34749-4 0 9991 2 25338 98.7843 235.9601 0010804 11.2502 348.8917 14.25747668949891 NOAA-18 1 28654U 05018A 16231.69029859 .00000030 00000-0 41759-4 0 9993 2 28654 99.1978 240.2478 0013999 195.9348 164.1384 14.12299719579550 NOAA-19 1 33591U 09005A 16231.72456960 .00000092 00000-0 75035-4 0 9992 2 33591 99.0455 189.0283 0014873 45.8946 314.3446 14.12097976387969 HUBBLE 1 20580U 90037B 16231.23710576 .00000632 00000-0 28329-4 0 9997 2 20580 28.4689 208.9312 0002951 151.4915 327.0030 15.08455758244498 ISS 1 25544U 98067A 16231.68854316 .00004228 00000-0 68779-4 0 9991 2 25544 51.6445 106.1474 0001998 140.4002 278.1409 15.55050300 14716 CO-58 1 28895U 05043F 16231.46152460 .00000200 00000-0 47393-4 0 9997 2 28895 97.8371 42.2821 0017500 26.2225 333.9861 14.63236685576218 AAUSAT2 1 32788U 08021F 16231.09218229 .00000582 00000-0 60690-4 0 9995 2 32788 97.5987 271.9072 0013605 67.2268 293.0388 14.93334480450437 DO-64 1 32789U 08021G 16231.16193748 .00002144 00000-0 16127-3 0 9993 2 32789 97.6026 289.2963 0014695 57.7620 302.5027 15.03528733451312 CO-66 1 32791U 08021J 16231.04712586 .00000623 00000-0 70263-4 0 9992 2 32791 97.5991 266.0493 0015179 82.0995 278.1945 14.89852080450000 RS-30 1 32953U 08025A 16231.90127311 .00000023 00000-0 92714-4 0 9996 2 32953 82.4998 67.6484 0018323 223.9948 135.9674 12.43070931373865 JUGNU 1 37839U 11058B 16231.11541588 .00000323 00000-0 30584-4 0 9993 2 37839 19.9609 128.0923 0019054 83.1805 65.7636 14.12549347250791 SRMSAT 1 37841U 11058D 16231.93233322 .00000305 00000-0 22573-4 0 9999 2 37841 19.9710 158.6113 0011755 2.2194 64.1855 14.10547554250556 AO-71 1 37854U 11061E 16230.90586033 .00001314 00000-0 80565-4 0 9999 2 37854 101.6992 304.6577 0172304 251.6076 106.6331 15.02463807260917 HRBE 1 37855U 11061F 16230.76938284 .00001094 00000-0 67420-4 0 9993 2 37855 101.7118 302.4800 0185722 256.6544 101.3900 15.01391259261237 HORYU-2 1 38340U 12025D 16230.96910461 .00000340 00000-0 58502-4 0 9997 2 38340 98.3594 218.5223 0011802 169.4603 190.6855 14.75086280228582 RS-40 1 38735U 12041C 16231.86749663 .00000015 00000-0 38992-4 0 9997 2 38735 82.4787 152.6973 0016721 331.3824 28.6336 12.42572445184140 BEESAT-3 1 39134U 13015E 16231.71389302 .00002787 00000-0 14284-3 0 9992 2 39134 64.8706 121.6578 0011853 293.8111 66.2281 15.16267574183591 BEESAT-2 1 39136U 13015G 16231.88543437 .00001683 00000-0 10294-3 0 9994 2 39136 64.8707 127.8735 0012043 306.6348 53.3668 15.13868239183491 ZACUBE-1 1 39417U 13066B 16231.12279426 .00000367 00000-0 53315-4 0 9993 2 39417 97.6745 281.3323 0059727 179.1543 180.9781 14.80451030147930 TRITON-1 1 39427U 13066M 16231.14879337 .00000265 00000-0 51070-4 0 9996 2 39427 97.6636 260.4839 0113402 238.6625 120.3443 14.67236479146602 GOMX-1 1 39430U 13066Q 16231.81668975 .00000295 00000-0 63526-4 0 9990 2 39430 97.6676 247.9944 0150838 278.0756 80.3354 14.58649459145852 LO-74 1 39440U 13066AA 16231.07902095 .00000330 00000-0 53630-4 0 9998 2 39440 97.6686 272.9663 0080582 202.1559 157.6162 14.75209885147409 SPROUT 1 39770U 14029E 16231.80778886 .00000584 00000-0 73810-4 0 9997 2 39770 97.8733 328.3404 0008239 232.8410 127.2060 14.85530397121233 EO-80 1 40032U 14033Y 16231.68811512 .00000415 00000-0 51752-4 0 9999 2 40032 97.9210 136.5247 0011199 207.5261 152.5363 14.87647673117468 VELOX-1 1 40057U 14034E 16231.80702666 .00000439 00000-0 70235-4 0 9993 2 40057 98.1938 321.5461 0010063 312.2022 47.8332 14.76780599115123 DAURIA DX 1 1 40071U 14037C 16231.77695230 .00000212 00000-0 34829-4 0 9994 2 40071 98.3316 325.1000 0007565 312.2082 47.8497 14.80853552114215 UKUBE-1 1 40074U 14037F 16231.81972134 .00000492 00000-0 67537-4 0 9995 2 40074 98.3358 327.5467 0003757 320.5947 39.4983 14.83148648114356 HODOYOSHI-1 1 40299U 14070B 16231.81599679 .00001279 00000-0 59846-4 0 9998 2 40299 97.4273 312.8725 0015242 73.9308 40.5623 15.21483966 98956 CHUBUSAT-1 1 40300U 14070C 16231.88648483 .00001404 00000-0 67955-4 0 9996 2 40300 97.4231 310.9948 0022834 80.0494 10.9646 15.20008901 98855 QSAT-EOS 1 40301U 14070D 16231.78865957 .00002873 00000-0 12943-3 0 9990 2 40301 97.4174 310.3134 0030643 79.1347 35.2344 15.21445587 98824 FIREBIRD FU3 1 40377U 15003B 16231.90531441 .00002101 00000-0 98194-4 0 9999 2 40377 99.0921 350.6659 0141810 282.7265 75.8142 15.12938857 85261 FIREBIRD FU4 1 40378U 15003C 16231.90125849 .00002179 00000-0 10153-3 0 9994 2 40378 99.0923 350.6782 0142022 282.6842 75.8539 15.12948790 85264 GRIFEX 1 40379U 15003D 16231.91252642 .00001612 00000-0 79699-4 0 9990 2 40379 99.0928 349.6453 0146304 286.8672 71.6553 15.11096702 85207 NO-84 1 40654U 15025D 16230.26026381 .00005393 00000-0 12065-3 0 02015 2 40654 054.9990 148.5248 0201352 224.2070 134.2715 15.26804970033369 NO-83 1 40655U 15025E 16230.22392369 .00008561 00000-0 16908-3 0 02205 2 40655 054.9865 140.1209 0181138 228.0808 130.4667 15.32335041033455 DEORBITSAIL 1 40719U 15032E 16231.20037226 .00000617 00000-0 97790-4 0 9997 2 40719 98.0092 122.2660 0017847 41.0738 319.1811 14.75631830 59635 NUDT-PHONESAT 1 40900U 15049B 16231.89019170 .00003143 00000-0 16084-3 0 9993 2 40900 97.4451 238.5232 0014553 191.5938 168.4963 15.17271743 50587 XW-2D 1 40907U 15049J 16231.83898668 .00001199 00000-0 69843-4 0 9992 2 40907 97.4510 237.4283 0015124 172.8476 187.2974 15.13804885 50483 XW-2F 1 40910U 15049M 16231.91847816 .00001669 00000-0 94432-4 0 9998 2 40910 97.4539 237.7628 0016185 171.6482 188.5023 15.14331713 50391 XW-2B 1 40911U 15049N 16231.90532092 .00001172 00000-0 68392-4 0 9990 2 40911 97.4558 237.7033 0015010 172.7955 187.3495 15.13785562 50390 DCBB 1 40912U 15049P 16231.85408124 .00001811 00000-0 96670-4 0 9993 2 40912 97.4530 238.6540 0016408 167.3870 276.6983 15.16297439 50457 TW-1C 1 40926U 15051B 16231.83051028 .00007496 00000-0 20598-3 0 9996 2 40926 97.2707 268.0860 0013764 176.1062 272.1041 15.37409366 50386 TW-1A 1 40928U 15051D 16231.78735774 .00003174 00000-0 99552-4 0 9995 2 40928 97.2653 266.8485 0013402 195.3278 253.9589 15.33707231 50313 IO-86 1 40931U 15052B 16231.76503997 .00000879 00000-0 33615-4 0 9995 2 40931 6.0003 228.9731 0013535 286.2606 73.6621 14.76476593 48196 GomX-3 1 40949U 98067HA 16231.92488289 .00103227 00000-0 36702-3 0 9995 2 40949 51.6264 67.7497 0001553 175.2214 184.8806 15.88142767 50007 LQSat 1 40958U 15057A 16231.81162789 .00000060 00000-0 17216-4 0 9996 2 40958 98.0114 305.8705 0017420 317.7927 42.1930 14.72888883 46601 AO-85 1 40967U 15058D 16230.54769343 .00000195 00000-0 39980-4 0 02269 2 40967 064.7791 059.7685 0197176 185.6866 174.1967 14.75088857032321 ATHENOXAT-1 1 41168U 15077C 16231.26480273 .00002802 00000-0 12666-3 0 9991 2 41168 14.9881 220.3266 0012697 139.7101 326.2990 15.10221500 37155 ChubuSat-2 1 41338U 16012B 16231.16343780 .00000543 00000-0 36350-4 0 9997 2 41338 31.0024 236.4049 0014025 300.2086 59.7160 14.99448962 27463 ChubuSat-3 1 41339U 16012C 16231.40132047 .00000555 00000-0 37042-4 0 9999 2 41339 31.0089 234.5545 0013816 308.2317 51.7076 14.99676809 27479 Horyu-4 1 41340U 16012D 16231.22205937 .00000827 00000-0 57863-4 0 9995 2 41340 31.0044 234.9504 0014318 312.2886 47.6535 15.00122145 27471 OUFTI-1 1 41458U 16025C 16231.40383880 .00001973 00000-0 11434-3 0 9999 2 41458 98.2012 245.4444 0176820 219.8509 138.9625 15.01358925 17114 e-st@r-II 1 41459U 16025D 16230.93789833 .00001600 00000-0 93840-4 0 9994 2 41459 098.2012 244.9480 0176748 221.3953 137.3769 15.01322357017043 AAUSAT4 1 41460U 16025E 16231.85854160 .00003276 00000-0 18644-3 0 9993 2 41460 98.2052 245.9425 0174433 218.1142 140.7650 15.01660148 17187 MinXSS 1 41474U 98067HU 16231.89004828 .00028231 00000-0 34797-3 0 9991 2 41474 51.6416 103.1292 0001779 55.6937 304.4224 15.59966844 14711 CADRE 1 41475U 98067HV 16231.82526150 .00045813 00000-0 51099-3 0 9991 2 41475 51.6397 102.6861 0002123 102.2138 257.9094 15.62330081 14711 NODES 1 1 41477U 98067HX 16231.86208078 .00018719 00000-0 24425-3 0 9991 2 41477 51.6397 103.6845 0001441 45.5988 314.5123 15.58728471 14611 NODES 2 1 41478U 98067HY 16231.86417835 .00018403 00000-0 24072-3 0 9993 2 41478 51.6397 103.6975 0001406 48.7896 311.3218 15.58675428 14613 NuSat1-LUSEX 1 41557U 16033B 16231.81846921 .00002194 00000-0 89088-4 0 9990 2 41557 97.4952 305.0847 0014814 359.8583 95.3367 15.25597257 12303 NuSat2 1 41558U 16033C 16231.82864073 .00002198 00000-0 89636-4 0 9993 2 41558 97.4969 305.1020 0014436 358.0614 112.2388 15.25457650 12306 Lapan A3 1 41603U 16040E 16231.85983258 .00000249 00000-0 15150-4 0 9997 2 41603 97.5066 290.6687 0015042 51.9444 51.0679 15.19091742 8753 Swayam 1 41607U 16040J 16231.11809639 .00002655 00000-0 12916-3 0 9999 2 41607 97.5040 289.9100 0016336 58.4678 301.8150 15.19172122 8569 /EX
